Printer-friendly version

IAU Minor Planet Center

Minor Planet Center

MPEC 2007-F83 : 2007 FS35

The following Minor Planet Electronic Circular may be linked-to from your own Web pages, but must not otherwise be redistributed electronically.


Read MPEC 2007-F82 Read MPEC 2007-F84


M.P.E.C. 2007-F83                                Issued 2007 Mar. 29, 14:00 UT

     The Minor Planet Electronic Circulars contain information on unusual
         minor planets and routine data on comets.  They are published
   on behalf of Commission 20 of the International Astronomical Union by the
          Minor Planet Center, Smithsonian Astrophysical Observatory,
                          Cambridge, MA 02138, U.S.A.

             Prepared using the Tamkin Foundation Computer Network

                              MPC@CFA.HARVARD.EDU
          URL http://cfa-www.harvard.edu/iau/mpc.html  ISSN 1523-6714

                                   2007 FS35

Observations:
     K07F35S* C2007 03 20.25667 12 39 26.20 -04 13 56.3          21.1 V EF083691
     K07F35S  C2007 03 20.27438 12 39 24.97 -04 13 47.9          20.9 V EF083691
     K07F35S  C2007 03 20.29211 12 39 23.76 -04 13 40.7          20.7 V EF083691
     K07F35S  C2007 03 26.25088 12 32 22.32 -03 26 52.0          20.8 V EF083691
     K07F35S  C2007 03 26.26853 12 32 20.95 -03 26 43.2          20.7 V EF083691
     K07F35S  C2007 03 26.28618 12 32 19.55 -03 26 34.3          20.8 V EF083691
     K07F35S  C2007 03 26.40225 12 32 10.34 -03 25 35.8                 EF083291
     K07F35S  C2007 03 26.40609 12 32 10.05 -03 25 33.9                 EF083291
     K07F35S  C2007 03 26.41014 12 32 09.72 -03 25 31.7                 EF083291
     K07F35S SC2007 03 26.95838 12 31 28.47 -03 20 57.7                 EF083J95
     K07F35S SC2007 03 26.96984 12 31 27.60 -03 20 52.0                 EF083J95
     K07F35S FC2007 03 27.06847 12 31 19.86 -03 20 00.9                 EF083J95
     K07F35S  C2007 03 29.24622 12 28 31.08 -03 01 06.0                 EF083291
     K07F35S  C2007 03 29.25006 12 28 30.72 -03 01 04.1                 EF083291
     K07F35S  C2007 03 29.25380 12 28 30.43 -03 01 01.9                 EF083291
     K07F35S  C2007 03 29.42090 12 28 16.58 -02 59 33.9          20.7 V EF083291
     K07F35S  C2007 03 29.42461 12 28 16.29 -02 59 31.7          20.8 V EF083291
     K07F35S  C2007 03 29.42831 12 28 15.98 -02 59 30.1          21.0 V EF083291

Observer details:
291 LPL/Spacewatch II.  Observer R. S. McMillan.  1.8-m f/2.7 reflector + CCD.
691 Steward Observatory, Kitt Peak.  Observers J. V. Scotti, R. S. McMillan.
    0.9-m f/3 reflector + CCD.
J95 Great Shefford.  Observer P. Birtwhistle.  0.40-m f/6.0 Schmidt-Cassegrain
    + CCD.

Orbital elements:
2007 FS35                                                Earth MOID = 0.1567 AU
Epoch 2007 Apr. 10.0 TT = JDT 2454200.5                 MPC
M 307.22766              (2000.0)            P               Q
n   0.37113277     Peri.  106.86641     +0.34512697     +0.93855595
a   1.9177111      Node   183.32318     -0.86319341     +0.31728084
e   0.3881021      Incl.    0.31589     -0.36848949     +0.13581458
P   2.66           H   19.8           G   0.15           U   9
Residuals in seconds of arc
070320 691  0.1+  0.1-    070326 291  0.2+  0.1+    070329 291  0.5+  0.4+
070320 691  0.1-  0.6+    070326 291  0.4+  0.1+    070329 291  0.1-  0.3+
070320 691  0.2+  0.1+    070326 291  0.3+  0.2+    070329 291  0.2+  0.5+
070326 691  0.0   0.2+    070326 J95  1.5-  1.0-    070329 291  0.0   0.1+
070326 691  0.3+  0.1+    070326 J95  0.9-  1.2-    070329 291  0.2+  0.4+
070326 691  0.3+  0.2+    070327 J95  0.2+  0.4-    070329 291  0.1+  0.0

Ephemeris:
2007 FS35                a,e,i = 1.92, 0.39, 0                   q = 1.1734
Date    TT    R. A. (2000) Decl.     Delta      r     Elong.  Phase     V
2007 03 21    12 38.61   -04 08.4    0.829    1.817   169.4     5.8    21.1
2007 03 31    12 26.18   -02 45.4    0.768    1.766   177.3     1.5    20.7
2007 04 10    12 12.44   -01 12.9    0.730    1.715   163.7     9.4    20.9
2007 04 20    11 59.58   +00 14.2    0.714    1.663   150.4    17.4    21.1
2007 04 30    11 49.77   +01 21.2    0.714    1.610   137.9    24.8    21.3
2007 05 10    11 44.39   +01 59.1    0.728    1.558   126.8    31.3    21.4
2007 05 20    11 43.96   +02 04.3    0.748    1.507   117.0    36.8    21.6
2007 05 30    11 48.46   +01 37.1    0.771    1.456   108.6    41.3    21.7
2007 06 09    11 57.45   +00 40.4    0.794    1.407   101.4    45.0    21.8

Kyle E. Smalley              (C) Copyright 2007 MPC           M.P.E.C. 2007-F83

Read MPEC 2007-F82 Read MPEC 2007-F84


Our Web policy. Index to the CBAT/MPC/ICQ pages.


Valid HTML 4.01!